Simultaneous Nadir Overpasses (SNOs) Predictions

Prediction of SNOs between NOAA-20 and METOP-C Satellite Orbit:

Table of predicted SNOs for the next 14.0 days since TLE Epoch: 6/16/2021
Index Date (NOAA-20) Time (NOAA-20) Lat,Lon (NOAA-20) SZA (NOAA-20 ) Date (METOP-C) Time (METOP-C) Lat,Lon (METOP-C) SZA (METOP-C ) Distance(km) Time Diff (sec)
1 06/29/2021 12:48:07 73.25, -21.34 50.28 06/29/2021 12:49:15 73.25, -19.11 50.14 71.21 68
2 06/29/2021 13:38:51 -73.24, 146.01 129.74 06/29/2021 13:40:00 -73.14, 147.98 129.96 64.12 69
3 06/29/2021 14:29:30 72.96, -46.06 49.95 06/29/2021 14:30:42 72.92, -45.15 49.85 29.89 72
4 06/29/2021 15:20:14 -72.94, 121.28 130.06 06/29/2021 15:21:26 -72.87, 122.05 130.19 26.56 72
5 06/29/2021 16:10:55 72.71, -70.92 49.69 06/29/2021 16:12:08 72.70, -70.96 49.66 1.95 73
6 06/29/2021 17:01:39 -72.69, 96.42 130.33 06/29/2021 17:02:51 -72.69, 96.35 130.34 2.37 72
7 06/29/2021 17:52:25 72.71, -96.30 49.69 06/29/2021 17:53:29 72.73, -96.25 49.69 2.34 64
8 06/29/2021 18:43:09 -72.70, 71.04 130.32 06/29/2021 18:44:12 -72.72, 71.07 130.31 2.80 63
9 06/29/2021 19:33:55 72.72,-121.69 49.70 06/29/2021 19:34:51 72.70,-121.63 49.67 2.42 56
10 06/29/2021 20:24:39 -72.70, 45.66 130.31 06/29/2021 20:25:34 -72.70, 45.68 130.33 1.05 55
11 06/29/2021 21:15:24 72.67,-146.97 49.66 06/29/2021 21:16:13 72.68,-147.02 49.66 1.97 49
12 06/29/2021 22:06:08 -72.66, 20.38 130.36 06/29/2021 22:06:56 -72.68, 20.30 130.35 3.34 48
13 06/29/2021 22:56:54 72.68,-172.35 49.67 06/29/2021 22:57:35 72.66,-172.40 49.64 2.71 41
14 06/29/2021 23:47:38 -72.66, -5.01 130.35 06/29/2021 23:48:18 -72.66, -5.09 130.36 2.73 40
15 06/30/2021 00:38:24 72.68, 162.26 49.68 06/30/2021 00:38:56 72.69, 162.31 49.67 1.73 32
16 06/30/2021 01:29:08 -72.67, -30.39 130.34 06/30/2021 01:29:39 -72.68, -30.37 130.33 1.93 31
17 06/30/2021 02:19:54 72.69, 136.88 49.69 06/30/2021 02:20:18 72.66, 136.93 49.66 2.96 24



Historial Predications of SNOs between NOAA-20 and METOP-C
